User: anonymous   Login
Location: Unspecified
(0.0000°N, 0.0000°E)
Time: 21:25:51
(UTC+00:00)
Language:

STARLINK-33907 - Orbit

View from above orbital plane
View from above orbital plane
View from above satellite
View from above satellite

Ground track
Ground track

The orbit is defined by the following mean orbital elements,

1 63769U          26145.49840176 +.00000000 +00000-0 +10249-2 0 00009
2 63769  43.0040 331.5307 0001756 275.0082  85.0569 15.27619016    00
Epoch (UTC): 25 May 2026 11:57:41
Eccentricity: 0.0001756
inclination: 43.0040°
perigee height: 482 km
apogee height: 484 km
right ascension of ascending node: 331.5307°
argument of perigee: 275.0082°
revolutions per day: 15.27619016
mean anomaly at epoch: 85.0569°

The dashed part of the orbit path shows where the satellite is in the earth's shadow,  

DLR